Location: Nairn
(57.5833°N, 3.8667°W)
Time: 09:22:50
(UTC+00:00)

Vanguard 1 - Pass Details

Date: 28 November 2020
Orbit: 649 x 3834 km, 34.3° (Epoch: 15 January)

Event Time Altitude Azimuth Distance (km) Brightness Sun altitude
Rises 05:57:24 0° 208° (SSW) 3,802 12.9 -18.7°
Reaches altitude 10° 06:01:19 10° 183° (S) 3,298 12.8 -18.2°
Maximum altitude 06:05:20 14° 154° (SSE) 3,453 13.3 -17.7°
Drops below altitude 10° 06:10:25 10° 127° (SE) 4,391 14.4 -17.0°
Sets 06:17:27 0° 108° (ESE) 6,177 16.0 -16.1°
